Tiempo atmosférico en la estación meteorológica de Cabo Peñas, Asturias (100 m.)



Fecha
DESCASC
Temp. máxima en grados centígrados (hora)
DESCASC
Temp. mínima en grados centígrados (hora)
DESCASC
Temp. media en grados centígrados
DESCASC
Racha de viento máxima en m/sg (hora)
DESCASC
Velocidad máxima media en intervalos de 10 minutos(hora)
DESCASC
Precipitaciones diarias en mm
DESCASC
Precipitaciones de 00:00 a 06:00 en mm
DESCASC
Precipitaciones de 06:00 a 12:00 en mm
DESCASC
Precipitaciones de 12:00 a 18:00 en mm
DESCASC
Precipitaciones de 18:00 a 24:00 en mm
DESCASC
20-09-2020 20.5 (17:10) 15.3 (05:40) 17.9 5.56 (07:10) 5 (07:10) 0 0 0 0 0
19-09-2020 19.4 (18:30) 15.6 (14:30) 17.5 13.33 (11:40) 8.61 (11:40) 19.1 0 9.4 9.7 0
18-09-2020 21.6 (14:20) 16.2 (02:30) 18.9 18.61 (00:20) 11.39 (00:10) 5.8 4.2 1.6 0 0
17-09-2020 22.3 (17:00) 17.7 (00:00) 20 16.39 (23:59) 11.67 (23:59) 2.6 2 0.6 0 0
16-09-2020 22.3 (15:30) 17.1 (00:00) 19.7 7.22 (14:00) 4.17 (11:40) 0 0 0 0 0
15-09-2020 22.2 (12:50) 17.4 (00:00) 19.8 5.28 (22:00) 3.61 (22:00) 0 0 0 0 0
14-09-2020 24.4 (00:30) 17.9 (00:00) 21.1 10.56 (05:20) 7.78 (05:30) 0.2 0 0 0.2 0
13-09-2020 23.2 (23:59) 16.8 (00:00) 20 10.83 (04:30) 8.33 (04:40) 0 0 0 0 0
12-09-2020 21.6 (14:30) 18.4 (00:00) 20 10.83 (18:30) 6.39 (20:50) 0 0 0 0 0
11-09-2020 22.2 (13:20) 16.3 (00:00) 19.3 10 (19:30) 5.83 (12:30) 0 0 0 0 0
10-09-2020 21.1 (13:30) 16.1 (00:00) 18.6 5.83 (17:40) 3.33 (19:20) 0 0 0 0 0
09-09-2020 20.9 (12:40) 16.2 (00:00) 18.6 9.44 (00:10) 6.67 (00:10) 0 0 0 0 0
08-09-2020 20.9 (11:40) 16 (00:00) 18.4 15.56 (13:00) 8.89 (13:10) 0 0 0 0 0
07-09-2020 21.1 (13:40) 16.2 (08:10) 18.7 12.78 (20:30) 8.89 (22:20) 0 0 0 0 0
06-09-2020 19.3 (17:20) 16.6 (00:00) 17.9 10.83 (02:40) 6.11 (08:00) 0 0 0 0 0
05-09-2020 20 (00:00) 18.2 (00:00) 19.1 13.61 (15:10) 5.83 (23:40) 0 0 0 0 0
04-09-2020 23.2 (13:20) 18.5 (00:00) 20.9 8.61 (01:50) 6.11 (00:40) 0 0 0 0 0
03-09-2020 22.9 (16:30) 16.6 (00:00) 19.8 9.44 (17:00) 6.67 (17:50) 0 0 0 0 0
02-09-2020 20.8 (14:20) 16.1 (00:00) 18.4 10.83 (23:10) 7.22 (23:10) 0 0 0 0 0
01-09-2020 20.8 (11:40) 15.3 (00:00) 18 7.22 (16:50) 3.33 (12:40) 0 0 0 0 0
31-08-2020 21.4 (15:10) 12.8 (00:00) 17.1 8.61 (16:00) 6.67 (15:40) 0 0 0 0 0
30-08-2020 18.9 (16:50) 13.6 (00:00) 16.3 9.17 (12:10) 6.39 (12:10) 11.4 4 3.5 3.9 0
29-08-2020 19.6 (17:10) 13.7 (00:00) 16.7 18.89 (06:50) 9.72 (06:30) 21.3 11.6 5.4 0.4 3.9
28-08-2020 19.6 (16:20) 14.6 (00:00) 17.1 18.61 (23:59) 10 (23:59) 3.3 1.8 0.3 0.3 0.9
27-08-2020 23.5 (17:20) 17.9 (00:00) 20.7 9.44 (22:00) 5.83 (23:10) 0.5 0 0 0 0.5
26-08-2020 22.5 (17:40) 19.2 (00:00) 20.9 8.33 (16:20) 5.83 (17:10) 0.1 0 0.1 0 0
25-08-2020 24.7 (15:20) 18.4 (00:00) 21.6 7.5 (18:50) 5.56 (00:10) 0 0 0 0 0
24-08-2020 23.1 (14:40) 18.6 (00:00) 20.9 11.67 (15:50) 7.5 (21:10) 0 0 0 0 0
23-08-2020 22.1 (13:30) 17.3 (00:00) 19.7 7.5 (14:20) 4.44 (14:30) 0 0 0 0 0

Gráficas

Temp. máximas Temp. mínimas Temp. medias Precipitaciones Rachas de viento máximas Velocidades máximas media en intervalos de 10 minutos

Datos horarios

Fecha y hora oficial Temperatura (ºC) Velocidad del viento (km/h) Dirección del viento Racha (km/h) Dirección de racha Precipitación (mm) Presión (hPa) Tendencia (hPa) Humedad (%)
2020-09-21 23:00:00 17.4 9 Sudoeste 11 Oeste 0 -- -- 94
2020-09-21 22:00:00 17.3 7 Oeste 12 Oeste 0 -- -- 94
2020-09-21 21:00:00 17.6 8 Sudoeste 10 Sudoeste 0 -- -- 93
2020-09-21 20:00:00 18.5 5 Sudoeste 9 Sudoeste 0 -- -- 92
2020-09-21 19:00:00 19 3 Noroeste 9 Oeste 0 -- -- 90
2020-09-21 18:00:00 19.3 5 Noroeste 10 Oeste 0 -- -- 87
2020-09-21 17:00:00 19.4 7 Oeste 16 Sudoeste 0 -- -- 87
2020-09-21 16:00:00 18.9 13 Oeste 19 Oeste 0 -- -- 92
2020-09-21 15:00:00 19 13 Oeste 22 Oeste 0 -- -- 92
2020-09-21 14:00:00 19 13 Oeste 22 Oeste 0 -- -- 91
2020-09-21 13:00:00 18.6 12 Oeste 19 Oeste 0 -- -- 95
2020-09-21 12:00:00 18.7 13 Oeste 17 Oeste 0 -- -- 95
2020-09-21 11:00:00 19 12 Sudoeste 19 Sudoeste 0 -- -- 91
2020-09-21 10:00:00 18.4 11 Sudoeste 15 Oeste 0 -- -- 95
2020-09-21 09:00:00 17 13 Sudoeste 16 Sudoeste 0 -- -- 97
2020-09-21 08:00:00 16.8 12 Sudoeste 16 Sudoeste 0 -- -- 97
2020-09-21 07:00:00 16.3 9 Sudoeste 13 Oeste 0 -- -- 97
2020-09-21 06:00:00 16.5 9 Sudoeste 14 Oeste 0 -- -- 96
2020-09-21 05:00:00 16.3 10 Sudoeste 14 Oeste 0 -- -- 94
2020-09-21 04:00:00 16.7 9 Oeste 11 Sudoeste 0 -- -- 93
2020-09-21 03:00:00 16.6 9 Sudoeste 12 Sudoeste 0 -- -- 93
2020-09-21 02:00:00 17.5 9 Sudoeste 12 Oeste 0 -- -- 93
2020-09-21 01:00:00 16.6 10 Sudoeste 14 Oeste 0 -- -- 96
2020-09-21 00:00:00 16.7 8 Oeste 12 Oeste 0 -- -- 93
2020-09-20 23:00:00 17.5 7 Sudoeste 9 Sudoeste 0 -- -- 91
2020-09-20 22:00:00 18 6 Sudoeste 8 Sudoeste 0 -- -- 91
2020-09-20 21:00:00 18.3 4 Sudoeste 6 Oeste 0 -- -- 92
2020-09-20 20:00:00 19.2 4 Noroeste 8 Noroeste 0 -- -- 82
2020-09-20 19:00:00 19.3 5 Noroeste 11 Norte 0 -- -- 85
2020-09-20 18:00:00 19.4 9 Noroeste 10 Noroeste 0 -- -- 83
2020-09-20 17:00:00 19.9 6 Noroeste 16 Oeste 0 -- -- 86
2020-09-20 16:00:00 20.2 11 Oeste 18 Noroeste 0 -- -- 91
2020-09-20 15:00:00 19.5 13 Noroeste 19 Noroeste 0 -- -- 92
2020-09-20 14:00:00 18.8 12 Noroeste 17 Noroeste 0 -- -- 92
2020-09-20 13:00:00 18.7 8 Oeste 17 Oeste 0 -- -- 91
2020-09-20 12:00:00 18.7 11 Oeste 17 Sudoeste 0 -- -- 93
2020-09-20 11:00:00 18.2 14 Sudoeste 18 Sudoeste 0 -- -- 91
2020-09-20 10:00:00 17.4 14 Sudoeste 18 Sudoeste 0 -- -- 95
2020-09-20 09:00:00 16.7 16 Sudoeste 18 Sudoeste 0 -- -- 97
2020-09-20 08:00:00 16.1 14 Sudoeste 20 Sudoeste 0 -- -- 97
2020-09-20 07:00:00 16.2 16 Sudoeste 18 Sudoeste 0 -- -- 95
2020-09-20 06:00:00 15.6 13 Oeste 16 Sudoeste 0 -- -- 96
2020-09-20 05:00:00 16.4 13 Sudoeste 19 Sudoeste 0 -- -- 94
2020-09-20 04:00:00 16.5 14 Sudoeste 17 Oeste 0 -- -- 94
2020-09-20 03:00:00 16.3 14 Sudoeste 17 Sudoeste 0 -- -- 96
2020-09-20 02:00:00 16.4 12 Sudoeste 17 Oeste 0 -- -- 94
2020-09-20 01:00:00 16.5 12 Sudoeste 18 Sudoeste 0 -- -- 96
2020-09-20 00:00:00 17.2 16 Sudoeste 23 Sudoeste 0 -- -- 97
2020-09-19 23:00:00 17.4 19 Sudoeste 27 Sudoeste 0 -- -- 97
2020-09-19 22:00:00 17.5 16 Sudoeste 28 Oeste 0 -- -- 97
2020-09-19 21:00:00 17.6 21 Oeste 31 Oeste 0 -- -- 97
2020-09-19 20:00:00 18 18 Oeste 27 Oeste 0 -- -- 96
2020-09-19 19:00:00 18.7 15 Oeste 27 Oeste 0 -- -- 88
2020-09-19 18:00:00 18.7 13 Oeste 17 Oeste 0 -- -- 86
2020-09-19 17:00:00 17.8 16 Sudoeste 29 Sudoeste 0.2 -- -- 85
2020-09-19 16:00:00 16.4 22 Sudoeste 34 Sudoeste 1.2 -- -- 94
2020-09-19 15:00:00 16 24 Sudoeste 32 Oeste 3.1 -- -- 99
2020-09-19 14:00:00 16.1 19 Oeste 33 Oeste 3.4 -- -- 99
2020-09-19 13:00:00 16.2 22 Oeste 42 Oeste 1.8 -- -- 98
2020-09-19 12:00:00 16.6 30 Oeste 48 Oeste 3 -- -- 98
2020-09-19 11:00:00 16.6 24 Oeste 36 Oeste 5.4 -- -- 98
2020-09-19 10:00:00 16.7 19 Oeste 29 Oeste 1 -- -- 97
2020-09-19 09:00:00 16.6 17 Sudoeste 24 Sudoeste 0 -- -- 96
2020-09-19 08:00:00 16.5 18 Sudoeste 22 Sudoeste 0 -- -- 97
2020-09-19 07:00:00 16.4 17 Sudoeste 20 Sudoeste 0 -- -- 98
2020-09-19 06:00:00 16.6 16 Sudoeste 19 Sudoeste 0 -- -- 97
2020-09-19 05:00:00 16.5 12 Sudoeste 14 Sudoeste 0 -- -- 96
2020-09-19 04:00:00 17.8 4 Sudoeste 7 Sudoeste 0 -- -- 93
2020-09-19 03:00:00 18.7 3 Sudeste 8 Sudeste 0 -- -- 92
2020-09-19 02:00:00 18.3 6 Sudeste 11 Este 0 -- -- 93
2020-09-19 01:00:00 18.5 7 Este 15 Sudeste 0 -- -- 92
2020-09-19 00:00:00 18.6 4 Sudeste 13 Sudeste 0 -- -- 91
2020-09-18 23:00:00 18.7 7 Sudeste 13 Sudeste 0 -- -- 96
2020-09-18 22:00:00 18.4 8 Este 14 Este 0 -- -- 96
2020-09-18 21:00:00 18.5 8 Este 13 Sudeste 0 -- -- 94
2020-09-18 20:00:00 18.7 10 Sudeste 17 Sudeste 0 -- -- 87
2020-09-18 19:00:00 18.9 7 Sudeste 11 Sudeste 0 -- -- 84
2020-09-18 18:00:00 19.8 3 Nordeste 9 Nordeste 0 -- -- 77
2020-09-18 17:00:00 19.5 4 Oeste 9 Oeste 0 -- -- 77
2020-09-18 16:00:00 20.1 3 Noroeste 16 Oeste 0 -- -- 77
2020-09-18 15:00:00 20.9 9 Oeste 15 Oeste 0 -- -- 73
2020-09-18 14:00:00 21.3 7 Oeste 14 Oeste 0 -- -- 79
2020-09-18 13:00:00 19.5 9 Sudoeste 15 Oeste 0 -- -- 86
2020-09-18 12:00:00 19.5 6 Oeste 10 Oeste 0 -- -- 94
2020-09-18 11:00:00 18.3 6 Sudoeste 12 Sudoeste 1.1 -- -- 97
2020-09-18 10:00:00 17.2 4 Sur 11 Sudeste 0.3 -- -- 96
2020-09-18 09:00:00 16.7 5 Sudeste 15 Oeste 0.2 -- -- 96
2020-09-18 08:00:00 17.7 12 Oeste 21 Oeste 0 -- -- 92
2020-09-18 07:00:00 17 16 Sudoeste 29 Sudoeste 0 -- -- 92
2020-09-18 06:00:00 16.8 20 Sudoeste 31 Oeste 0.1 -- -- 96
2020-09-18 05:00:00 16.2 24 Sudoeste 30 Sudoeste 0 -- -- 98
2020-09-18 04:00:00 16.5 4 Oeste 45 Sudoeste 0.7 -- -- 98
2020-09-18 03:00:00 16.6 26 Oeste 41 Sudoeste 3.4 -- -- 99
2020-09-18 02:00:00 16.5 27 Oeste 40 Oeste 0 -- -- 98
2020-09-18 01:00:00 17 22 Oeste 67 Oeste 0 -- -- 96
2020-09-18 00:00:00 17.9 42 Oeste 59 Oeste 0 -- -- 94
2020-09-17 23:00:00 21.4 21 Sudeste 30 Sudeste 0 -- -- 84
2020-09-17 22:00:00 20.6 22 Sudeste 32 Sudeste 0 -- -- 90
2020-09-17 21:00:00 20.3 23 Sudeste 33 Sudeste 0 -- -- 90
2020-09-17 20:00:00 20.4 19 Sudeste 27 Este 0 -- -- 92
2020-09-17 19:00:00 20.9 19 Sudeste 24 Sudeste 0 -- -- 95
2020-09-17 18:00:00 21.6 19 Este 23 Sudeste 0 -- -- 93
2020-09-17 17:00:00 21.9 16 Sudeste 23 Sudeste 0 -- -- 93
2020-09-17 16:00:00 20.7 14 Sudeste 21 Este 0 -- -- 98
2020-09-17 15:00:00 20.4 12 Este 19 Este 0 -- -- 98
2020-09-17 14:00:00 20.5 8 Este 15 Este 0 -- -- 98
2020-09-17 13:00:00 20.6 10 Este 15 Este 0 -- -- 98
2020-09-17 12:00:00 20.5 11 Este 22 Sudeste 0 -- -- 98
2020-09-17 11:00:00 20.3 19 Sudeste 29 Sudeste 0 -- -- 99
2020-09-17 10:00:00 19.6 18 Sudeste 28 Sudeste 0 -- -- 99
2020-09-17 09:00:00 19.4 17 Sudeste 27 Sudeste 0.1 -- -- 98
2020-09-17 08:00:00 19.5 19 Sudeste 27 Este 0.3 -- -- 98
2020-09-17 07:00:00 19.4 23 Sudeste 31 Sudeste 0.2 -- -- 99
2020-09-17 06:00:00 19.3 15 Sudeste 21 Sudeste 2 -- -- 99
2020-09-17 05:00:00 19 9 Este 14 Sudeste 0 -- -- 99
2020-09-17 04:00:00 19.4 6 Este 14 Sudeste 0 -- -- 99
2020-09-17 03:00:00 19.8 12 Sudeste 17 Este 0 -- -- 99
2020-09-17 02:00:00 19.6 10 Este 19 Sudeste 0 -- -- 99
2020-09-17 01:00:00 19.9 13 Este 18 Este 0 -- -- 99
2020-09-17 00:00:00 19.6 13 Este 18 Este 0 -- -- 99
2020-09-16 23:00:00 19.7 13 Sudeste 17 Sudeste 0 -- -- 99
2020-09-16 22:00:00 19.6 8 Este 16 Este 0 -- -- 99
2020-09-16 21:00:00 19.5 11 Este 16 Este 0 -- -- 99
2020-09-16 20:00:00 19.7 11 Este 16 Este 0 -- -- 98
2020-09-16 19:00:00 20.2 11 Este 20 Sudeste 0 -- -- 96
2020-09-16 18:00:00 20.5 13 Este 19 Este 0 -- -- 94
2020-09-16 17:00:00 20.7 13 Este 19 Este 0 -- -- 93
2020-09-16 16:00:00 21.3 12 Este 19 Este 0 -- -- 88
2020-09-16 15:00:00 21.7 13 Este 20 Este 0 -- -- 86
2020-09-16 14:00:00 20.9 13 Este 26 Este 0 -- -- 88
2020-09-16 13:00:00 22 10 Este 18 Sudeste 0 -- -- 81
2020-09-16 12:00:00 21.6 13 Este 21 Este 0 -- -- 83
2020-09-16 11:00:00 20.2 9 Sudeste 14 Sudeste 0 -- -- 93
2020-09-16 10:00:00 19.4 5 Sudeste 8 Sudeste 0 -- -- 96
2020-09-16 09:00:00 18.7 3 Sudeste 9 Sudeste 0 -- -- 97
2020-09-16 08:00:00 18.7 3 Sur 9 Sur 0 -- -- 97
2020-09-16 07:00:00 18.6 5 Sur 9 Sur 0 -- -- 98
2020-09-16 06:00:00 17.9 5 Sur 14 Sudoeste 0 -- -- 98
2020-09-16 05:00:00 18.9 3 Sudoeste 7 Sudeste 0 -- -- 96
2020-09-16 04:00:00 19 3 Sur 10 Sudeste 0 -- -- 94
2020-09-16 03:00:00 18.4 5 Este 15 Sudeste 0 -- -- 97
2020-09-16 02:00:00 18.4 9 Sudeste 15 Sudeste 0 -- -- 98
2020-09-16 01:00:00 19 9 Sudeste 17 Sudeste 0 -- -- 98
2020-09-16 00:00:00 19.3 12 Este 17 Este 0 -- -- 98
2020-09-15 23:00:00 19.6 9 Este 18 Este 0 -- -- 98
2020-09-15 22:00:00 19.5 13 Este 19 Este 0 -- -- 98
2020-09-15 21:00:00 19.4 10 Este 17 Este 0 -- -- 97
2020-09-15 20:00:00 19.5 6 Este 15 Este 0 -- -- 96
2020-09-15 19:00:00 20.4 6 Este 13 Este 0 -- -- 92
2020-09-15 18:00:00 20.6 5 Este 12 Nordeste 0 -- -- 91
2020-09-15 17:00:00 21.1 4 Nordeste 10 Nordeste 0 -- -- 87
2020-09-15 16:00:00 21.3 5 Norte 9 Norte 0 -- -- 83
2020-09-15 15:00:00 20 5 Norte 8 Noroeste 0 -- -- 86
2020-09-15 14:00:00 20.9 6 Nordeste 13 Este 0 -- -- 81
2020-09-15 13:00:00 21.7 9 Este 16 Sudeste 0 -- -- 77
2020-09-15 12:00:00 21.3 10 Sudeste 15 Sudeste 0 -- -- 82
2020-09-15 11:00:00 20.4 2 Sudeste 8 Este 0 -- -- 89
2020-09-15 10:00:00 19.5 0 Calma 10 Sudoeste 0 -- -- 94
2020-09-15 09:00:00 18 7 Sudoeste 12 Sudoeste 0 -- -- 96
2020-09-15 08:00:00 18.2 7 Sudeste 9 Sudeste 0 -- -- 97
2020-09-15 07:00:00 18.6 0 Calma 5 Nordeste 0 -- -- 97
2020-09-15 06:00:00 17.4 3 Sudoeste 11 Sudeste 0 -- -- 97
2020-09-15 05:00:00 18.1 5 Este 7 Este 0 -- -- 97
2020-09-15 04:00:00 18.3 4 Sudeste 11 Sudeste 0 -- -- 97
2020-09-15 03:00:00 18.4 3 Sur 12 Sudoeste 0 -- -- 97
2020-09-15 02:00:00 19.1 4 Sur 18 Sudeste 0 -- -- 98
2020-09-15 01:00:00 18.9 6 Sudeste 9 Sudeste 0 -- -- 98
2020-09-15 00:00:00 19 2 Sudeste 25 Este 0 -- -- 99
2020-09-14 23:00:00 17.9 16 Este 24 Este 0 -- -- 99
2020-09-14 22:00:00 18.9 13 Sudoeste 19 Sudoeste 0 -- -- 97
2020-09-14 21:00:00 19.5 5 Este 13 Sudeste 0 -- -- 97
2020-09-14 20:00:00 19.5 2 Nordeste 17 Sudoeste 0 -- -- 94
2020-09-14 19:00:00 20.5 2 Norte 12 Oeste 0 -- -- 92
2020-09-14 18:00:00 20.7 6 Noroeste 12 Noroeste 0.1 -- -- 91
2020-09-14 17:00:00 20.6 8 Oeste 15 Oeste 0 -- -- 87
2020-09-14 16:00:00 19.7 12 Oeste 17 Oeste 0 -- -- 86
2020-09-14 15:00:00 20 3 Sudoeste 18 Noroeste 0 -- -- 88
2020-09-14 14:00:00 18.5 16 Oeste 30 Noroeste 0.1 -- -- 90
2020-09-14 13:00:00 20.1 20 Noroeste 30 Noroeste 0 -- -- 76
2020-09-14 12:00:00 21 13 Oeste 20 Oeste 0 -- -- 72
2020-09-14 11:00:00 21.1 16 Oeste 23 Oeste 0 -- -- 70
2020-09-14 10:00:00 20 11 Oeste 23 Oeste 0 -- -- 77
2020-09-14 09:00:00 19.4 17 Sudoeste 24 Oeste 0 -- -- 77
2020-09-14 08:00:00 19.2 21 Oeste 32 Oeste 0 -- -- 77
2020-09-14 07:00:00 19.2 25 Oeste 37 Oeste 0 -- -- 77
2020-09-14 06:00:00 19.5 24 Oeste 38 Oeste 0 -- -- 79
2020-09-14 05:00:00 19.9 24 Oeste 35 Oeste 0 -- -- 78
2020-09-14 04:00:00 21 24 Oeste 33 Oeste 0 -- -- 71
2020-09-14 03:00:00 20.7 17 Sudoeste 25 Oeste 0 -- -- 77
2020-09-14 02:00:00 19.3 22 Sudoeste 32 Oeste 0 -- -- 86
2020-09-14 01:00:00 19.6 23 Sudoeste 27 Sudoeste 0 -- -- 81
2020-09-14 00:00:00 23.1 21 Sudeste 25 Sudeste 0 -- -- 62
2020-09-13 23:00:00 18.8 17 Sudeste 30 Sudeste 0 -- -- 95
2020-09-13 22:00:00 19.6 23 Sudeste 30 Sudeste 0 -- -- 93
2020-09-13 21:00:00 19.7 25 Sudeste 32 Sudeste 0 -- -- 92
2020-09-13 20:00:00 19.8 24 Sudeste 33 Sudeste 0 -- -- 90
2020-09-13 19:00:00 20.1 28 Sudeste 35 Sudeste 0 -- -- 94
2020-09-13 18:00:00 20.6 25 Sudeste 33 Sudeste 0 -- -- 90
2020-09-13 17:00:00 21.3 27 Sudeste -- -- -- -- -- 83
2020-09-13 16:00:00 21.7 26 Sudeste 35 Sudeste 0 -- -- 79
2020-09-13 15:00:00 21.6 28 Sudeste 36 Sudeste 0 -- -- 81
2020-09-13 14:00:00 21.4 25 Este 33 Sudeste 0 -- -- 77
2020-09-13 13:00:00 20.6 25 Este 35 Sudeste 0 -- -- 85
2020-09-13 12:00:00 20.1 22 Este 30 Sudeste 0 -- -- 88
2020-09-13 11:00:00 19.9 18 Este 27 Este 0 -- -- 91
2020-09-13 10:00:00 19.3 19 Sudeste 26 Sudeste 0 -- -- 96
2020-09-13 09:00:00 18 12 Sudeste 17 Este 0 -- -- 99
2020-09-13 08:00:00 16.9 6 Sudeste 14 Sudeste 0 -- -- 98
2020-09-13 07:00:00 17.9 6 Sudeste 20 Sudeste 0 -- -- 98
2020-09-13 06:00:00 18.3 18 Sudeste 36 Sudeste 0 -- -- 98
2020-09-13 05:00:00 18.5 28 Este 39 Sudeste 0 -- -- 99
2020-09-13 04:00:00 18.4 25 Este 35 Sudeste 0 -- -- 99
2020-09-13 03:00:00 18.6 21 Este 32 Este 0 -- -- 99
2020-09-13 02:00:00 18.6 22 Este 33 Sudeste 0 -- -- 99
2020-09-13 01:00:00 18.5 20 Este 35 Este 0 -- -- 99
2020-09-13 00:00:00 18.6 22 Este 36 Este 0 -- -- 99
2020-09-12 23:00:00 18.5 21 Este 32 Este 0 -- -- 99
2020-09-12 22:00:00 18.7 22 Este 32 Este 0 -- -- 99
2020-09-12 21:00:00 18.8 23 Este 32 Este 0 -- -- 98
2020-09-12 20:00:00 19.3 17 Este 33 Este 0 -- -- 95
2020-09-12 19:00:00 19.7 21 Este 39 Este 0 -- -- 92
2020-09-12 18:00:00 20.1 18 Este 29 Este 0 -- -- 93
2020-09-12 17:00:00 19.8 18 Este 32 Este 0 -- -- 94
2020-09-12 16:00:00 20.2 17 Este 32 Este 0 -- -- 89
2020-09-12 15:00:00 20.3 19 Este 34 Este 0 -- -- 88
2020-09-12 14:00:00 20.9 18 Este 27 Este 0 -- -- 87
2020-09-12 13:00:00 20.6 19 Este 28 Este 0 -- -- 90
2020-09-12 12:00:00 19.8 15 Este 25 Este 0 -- -- 94
2020-09-12 11:00:00 19.2 16 Este 32 Este 0 -- -- 97
2020-09-12 10:00:00 18.9 11 Este 23 Este 0 -- -- 98
2020-09-12 09:00:00 18.9 17 Este 26 Este 0 -- -- 98
2020-09-12 08:00:00 18.8 14 Este 25 Este 0 -- -- 98
2020-09-12 07:00:00 19 15 Este 22 Este 0 -- -- 98
2020-09-12 06:00:00 18.9 15 Este 23 Este 0 -- -- 98
2020-09-12 05:00:00 19.2 13 Este 23 Este 0 -- -- 98
2020-09-12 04:00:00 19.3 15 Este 26 Este 0 -- -- 98
2020-09-12 03:00:00 19 9 Este 17 Este 0 -- -- 98
2020-09-12 02:00:00 18.8 12 Este 20 Este 0 -- -- 98
2020-09-12 01:00:00 18.9 15 Este 23 Este 0 -- -- 98
2020-09-12 00:00:00 19.1 18 Este 28 Este 0 -- -- 98
2020-09-11 23:00:00 19.3 19 Este 27 Este 0 -- -- 98
2020-09-11 22:00:00 19.2 16 Este 29 Este 0 -- -- 98
2020-09-11 21:00:00 19.2 15 Este 29 Este 0 -- -- 98
2020-09-11 20:00:00 19.7 16 Este 36 Este 0 -- -- 97
2020-09-11 19:00:00 19.9 18 Este 32 Este 0 -- -- 96
2020-09-11 18:00:00 20.1 17 Este 33 Nordeste 0 -- -- 94
2020-09-11 17:00:00 20.3 19 Sudeste 33 Sudeste 0 -- -- 93
2020-09-11 16:00:00 20.4 8 Este 19 Este 0 -- -- 91
2020-09-11 15:00:00 20.3 13 Este 22 Este 0 -- -- 92
2020-09-11 14:00:00 20.4 11 Este 22 Este 0 -- -- 89
2020-09-11 13:00:00 21.5 16 Este 28 Este 0 -- -- 82
2020-09-11 12:00:00 20.4 14 Este 25 Sudeste 0 -- -- 86
2020-09-11 11:00:00 19.1 12 Sudeste 15 Sudeste 0 -- -- 91
2020-09-11 10:00:00 18.7 9 Este 42 Sudeste 0 -- -- 93
2020-09-11 09:00:00 17.2 8 Sudeste 11 Sudeste 0 -- -- 96
2020-09-11 08:00:00 16.5 5 Este 13 Sudeste 0 -- -- 96
2020-09-11 07:00:00 16.8 11 Sudeste 18 Sudeste 0 -- -- 96
2020-09-11 06:00:00 16.8 9 Sudeste 17 Sudeste 0 -- -- 96
2020-09-11 05:00:00 18.3 14 Sudeste 21 Sudeste 0 -- -- 93
2020-09-11 04:00:00 18.5 15 Sudeste 20 Sudeste 0 -- -- 94
2020-09-11 03:00:00 18.3 13 Sudeste 17 Sudeste 0 -- -- 97
2020-09-11 02:00:00 18.4 9 Este 15 Este 0 -- -- 98
2020-09-11 01:00:00 18.3 9 Este 15 Este 0 -- -- 98
2020-09-11 00:00:00 18.2 9 Este 17 Este 0 -- -- 97
2020-09-10 23:00:00 18.4 8 Este 15 Este 0 -- -- 97
2020-09-10 22:00:00 18.6 9 Este 19 Este 0 -- -- 96
2020-09-10 21:00:00 19 8 Este 21 Este 0 -- -- 93
2020-09-10 20:00:00 19.2 10 Sudeste 21 Sudeste 0 -- -- 92
2020-09-10 19:00:00 19.9 10 Este 21 Nordeste 0 -- -- 88
2020-09-10 18:00:00 20.1 6 Este 21 Sudeste 0 -- -- 86
2020-09-10 17:00:00 20.5 6 Nordeste 14 Nordeste 0 -- -- 87
2020-09-10 16:00:00 20 6 Nordeste 12 Este 0 -- -- 90
2020-09-10 15:00:00 20 5 Nordeste 9 Nordeste 0 -- -- 90
2020-09-10 14:00:00 19.8 5 Nordeste 14 Este 0 -- -- 88
2020-09-10 13:00:00 20.6 10 Este 14 Este 0 -- -- 86
2020-09-10 12:00:00 20.1 8 Este 13 Este 0 -- -- 87
2020-09-10 11:00:00 19.8 5 Este 9 Este 0 -- -- 90
2020-09-10 10:00:00 18.9 4 Sudeste 10 Sudeste 0 -- -- 95
2020-09-10 09:00:00 17.3 4 Sudeste 9 Sudeste 0 -- -- 96
2020-09-10 08:00:00 16.3 5 Sur 8 Sudeste 0 -- -- 96
2020-09-10 07:00:00 16.9 7 Sudeste 14 Sudeste 0 -- -- 97
2020-09-10 06:00:00 17.2 7 Sudeste 13 Sudeste 0 -- -- 98
2020-09-10 05:00:00 17.6 9 Sudeste 13 Este 0 -- -- 98
2020-09-10 04:00:00 17.8 6 Sudeste 10 Sudeste 0 -- -- 98
2020-09-10 03:00:00 18 7 Sudeste 12 Sudeste 0 -- -- 98
2020-09-10 02:00:00 18.2 9 Sudeste 12 Sudeste 0 -- -- 98
2020-09-10 01:00:00 18.5 9 Este 16 Sudeste 0 -- -- 98
2020-09-10 00:00:00 18.5 12 Sudeste 18 Sudeste 0 -- -- 98
2020-09-09 23:00:00 19 7 Este 18 Este 0 -- -- 98
2020-09-09 22:00:00 18.9 8 Este 13 Este 0 -- -- 98
2020-09-09 21:00:00 19.2 6 Este 17 Este 0 -- -- 98
2020-09-09 20:00:00 19.5 6 Nordeste 13 Este 0 -- -- 97
2020-09-09 19:00:00 19.8 9 Este 20 Este 0 -- -- 96
2020-09-09 18:00:00 20 7 Este 19 Este 0 -- -- 93
2020-09-09 17:00:00 20.6 9 Este 18 Este 0 -- -- 91
2020-09-09 16:00:00 20.7 6 Nordeste 14 Este 0 -- -- 87
2020-09-09 15:00:00 20 7 Nordeste 13 Nordeste 0 -- -- 85
2020-09-09 14:00:00 20.5 3 Norte 6 Nordeste 0 -- -- 77
2020-09-09 13:00:00 20.5 3 Nordeste 11 Nordeste 0 -- -- 74
2020-09-09 12:00:00 20.7 5 Este 10 Sudeste 0 -- -- 76
2020-09-09 11:00:00 18.7 4 Nordeste 9 Este 0 -- -- 77
2020-09-09 10:00:00 18.5 3 Norte 12 Sudeste 0 -- -- 81
2020-09-09 09:00:00 18.4 10 Sudeste 17 Sudeste 0 -- -- 83
2020-09-09 08:00:00 17 11 Sudeste 15 Sudeste 0 -- -- 82
2020-09-09 07:00:00 17.2 7 Sudeste 9 Sudeste 0 -- -- 82
2020-09-09 06:00:00 16.6 2 Este 15 Sudeste 0 -- -- 85
2020-09-09 05:00:00 16.9 12 Sudeste 22 Este 0 -- -- 85
2020-09-09 04:00:00 17.1 14 Este 23 Este 0 -- -- 85
2020-09-09 03:00:00 16.8 14 Sudeste 22 Sudeste 0 -- -- 85
2020-09-09 02:00:00 17.2 16 Este 27 Sudeste 0 -- -- 87
2020-09-09 01:00:00 17.8 18 Este 34 Este 0 -- -- 88
2020-09-09 00:00:00 18.3 26 Este 39 Este 0 -- -- 87
2020-09-08 23:00:00 18.1 22 Este 37 Este 0 -- -- 88
2020-09-08 22:00:00 18.8 26 Este 39 Este 0 -- -- 84
2020-09-08 21:00:00 19.1 25 Este 40 Este 0 -- -- 82
2020-09-08 20:00:00 19.3 27 Este 46 Este 0 -- -- 79
2020-09-08 19:00:00 19.9 29 Este 48 Este 0 -- -- 77
2020-09-08 18:00:00 20.3 28 Este 44 Este 0 -- -- 77
2020-09-08 17:00:00 20.7 28 Este 54 Este 0 -- -- 75
2020-09-08 16:00:00 20.3 32 Este 49 Este 0 -- -- 76
2020-09-08 15:00:00 20.4 28 Este 51 Este 0 -- -- 77
2020-09-08 14:00:00 19.9 30 Este 54 Este 0 -- -- 79
2020-09-08 13:00:00 19.5 30 Este 56 Este 0 -- -- 82
2020-09-08 12:00:00 20.8 22 Este 34 Este 0 -- -- 75
2020-09-08 11:00:00 19.3 20 Este 29 Este 0 -- -- 74
2020-09-08 10:00:00 18.7 18 Sudeste 27 Sudeste 0 -- -- 76
2020-09-08 09:00:00 17.4 14 Sudeste 27 Sudeste 0 -- -- 77
2020-09-08 08:00:00 16.1 18 Sudeste 31 Sudeste 0 -- -- 81
2020-09-08 07:00:00 16.6 21 Este 35 Sudeste 0 -- -- 83
2020-09-08 06:00:00 17.5 27 Este 45 Este 0 -- -- 81
2020-09-08 05:00:00 16.8 24 Este 37 Sudeste 0 -- -- 85
2020-09-08 04:00:00 16.9 24 Este 37 Este 0 -- -- 83
2020-09-08 03:00:00 17.2 26 Este 39 Este 0 -- -- 85
2020-09-08 02:00:00 16.9 23 Este 34 Sudeste 0 -- -- 81
2020-09-08 01:00:00 17 24 Sudeste 39 Este 0 -- -- 82
2020-09-08 00:00:00 17.9 26 Este 41 Sudeste 0 -- -- 82
2020-09-07 23:00:00 18.6 30 Este 46 Este 0 -- -- 80
2020-09-07 22:00:00 18.7 28 Este 43 Este 0 -- -- 77
2020-09-07 21:00:00 18.8 26 Este 46 Este 0 -- -- 74
2020-09-07 20:00:00 19 26 Este 40 Este 0 -- -- 75
2020-09-07 19:00:00 19.1 25 Este 41 Este 0 -- -- 75
2020-09-07 18:00:00 19.1 24 Este 39 Este 0 -- -- 72
2020-09-07 17:00:00 20.2 21 Este 37 Este 0 -- -- 69
2020-09-07 16:00:00 20.8 22 Este 34 Este 0 -- -- 68
2020-09-07 15:00:00 20.5 21 Este 34 Este 0 -- -- 68
2020-09-07 14:00:00 20.5 18 Este 30 Este 0 -- -- 69
2020-09-07 13:00:00 20.3 18 Este 31 Sudeste 0 -- -- 69
2020-09-07 12:00:00 18.8 15 Este 26 Este 0 -- -- 71
2020-09-07 11:00:00 19 12 Este 20 Este 0 -- -- 72
2020-09-07 10:00:00 17.8 12 Sudeste 18 Este 0 -- -- 75
2020-09-07 09:00:00 16.5 14 Sudeste 19 Sudeste 0 -- -- 77
2020-09-07 08:00:00 16.3 14 Sudeste 33 Este 0 -- -- 77
2020-09-07 07:00:00 17.9 19 Este 32 Este 0 -- -- 71
2020-09-07 06:00:00 17.8 18 Este 31 Este 0 -- -- 72
2020-09-07 05:00:00 18 17 Este 30 Este 0 -- -- 72
2020-09-07 04:00:00 18 16 Este 27 Este 0 -- -- 73
2020-09-07 03:00:00 18.1 15 Sudeste 28 Este 0 -- -- 70
2020-09-07 02:00:00 18 16 Este 31 Este 0 -- -- 71
2020-09-07 01:00:00 18 14 Sudeste 29 Este 0 -- -- 73
2020-09-07 00:00:00 18.1 15 Sudeste 30 Sudeste 0 -- -- 72
2020-09-06 23:00:00 17.9 13 Sudeste 29 Este 0 -- -- 73
2020-09-06 22:00:00 18.2 12 Sudeste 28 Este 0 -- -- 73
2020-09-06 21:00:00 18.2 15 Este 31 Este 0 -- -- 71
2020-09-06 20:00:00 18.4 15 Sudeste 33 Este 0 -- -- 69
2020-09-06 19:00:00 18.5 15 Sudeste 31 Sudeste 0 -- -- 70
2020-09-06 18:00:00 19 13 Sudeste 27 Sudeste 0 -- -- 69
2020-09-06 17:00:00 18.9 16 Este 28 Este 0 -- -- 70
2020-09-06 16:00:00 18.6 13 Este 28 Este 0 -- -- 70
2020-09-06 15:00:00 18.6 13 Sudeste 26 Este 0 -- -- 71
2020-09-06 14:00:00 18.6 17 Este 26 Este 0 -- -- 74
2020-09-06 13:00:00 18 10 Este 27 Este 0 -- -- 76
2020-09-06 12:00:00 17.3 11 Este 28 Sudeste 0 -- -- 77
2020-09-06 11:00:00 17.6 12 Este 29 Este 0 -- -- 77
2020-09-06 10:00:00 16.8 15 Este 31 Sudeste 0 -- -- 77
2020-09-06 09:00:00 17.1 21 Este 36 Nordeste 0 -- -- 75
2020-09-06 08:00:00 17.3 22 Este 37 Este 0 -- -- 73
2020-09-06 07:00:00 17.5 18 Sudeste 32 Sudeste 0 -- -- 70
2020-09-06 06:00:00 17.7 12 Sudeste 31 Este 0 -- -- 69
2020-09-06 05:00:00 17.7 13 Sudeste 30 Este 0 -- -- 70
2020-09-06 04:00:00 17.7 14 Este 38 Nordeste 0 -- -- 71
2020-09-06 03:00:00 17.9 13 Sudeste 39 Este 0 -- -- 76
2020-09-06 02:00:00 18.2 15 Este 38 Sudeste 0 -- -- 79
2020-09-06 01:00:00 18.3 17 Este 38 Este 0 -- -- 82
2020-09-06 00:00:00 18.5 14 Este 45 Sudeste 0 -- -- 81
2020-09-05 23:00:00 18.7 16 Sudeste 37 Nordeste 0 -- -- 81
2020-09-05 22:00:00 18.5 14 Este 41 Sudeste 0 -- -- 85
2020-09-05 21:00:00 18.7 14 Este 46 Sudeste 0 -- -- 81
2020-09-05 20:00:00 18.6 14 Este 38 Este 0 -- -- 84
2020-09-05 19:00:00 18.7 15 Sudeste 40 Norte 0 -- -- 85
2020-09-05 18:00:00 18.7 14 Este 39 Este 0 -- -- 88
2020-09-05 17:00:00 18.6 14 Este 41 Este 0 -- -- 91
2020-09-05 16:00:00 18.5 14 Este 49 Este 0 -- -- 90
2020-09-05 15:00:00 18.6 17 Este 46 Este 0 -- -- 91
2020-09-05 14:00:00 19.1 13 Este 36 Este 0 -- -- 85
2020-09-05 13:00:00 19 12 Este 32 Sudeste 0 -- -- 84
2020-09-05 12:00:00 19.2 10 Este 33 Sudeste 0 -- -- 81
2020-09-05 11:00:00 19 13 Este 34 Nordeste 0 -- -- 83
2020-09-05 10:00:00 19 13 Este 38 Sur 0 -- -- 83
2020-09-05 09:00:00 19 11 Este 32 Este 0 -- -- 86
2020-09-05 08:00:00 19.1 10 Este 30 Nordeste 0 -- -- 80
2020-09-05 07:00:00 19 9 Este 31 Sudeste 0 -- -- 84
2020-09-05 06:00:00 19 10 Sudeste 24 Este 0 -- -- 88
2020-09-05 05:00:00 19.3 5 Sudeste 18 Este 0 -- -- 90
2020-09-05 04:00:00 19.3 4 Sudeste 13 Sur 0 -- -- 91
2020-09-05 03:00:00 19.5 3 Sudeste 13 Sudeste 0 -- -- 94
2020-09-05 02:00:00 19.7 5 Sudeste 15 Norte 0 -- -- 96
2020-09-05 01:00:00 19.9 10 Noroeste 21 Noroeste 0 -- -- 93
2020-09-05 00:00:00 20 11 Noroeste 29 Noroeste 0 -- -- 94
2020-09-04 23:00:00 20 15 Noroeste 25 Noroeste 0 -- -- 94
2020-09-04 22:00:00 19.8 10 Noroeste 19 Norte 0 -- -- 98
2020-09-04 21:00:00 19.9 9 Noroeste 14 Noroeste 0 -- -- 97
2020-09-04 20:00:00 20.6 5 Noroeste 12 Norte 0 -- -- 96
2020-09-04 19:00:00 21.3 2 Este 12 Este 0 -- -- 93
2020-09-04 18:00:00 21.4 4 Este 17 Este 0 -- -- 90
2020-09-04 17:00:00 21.8 14 Este 22 Este 0 -- -- 88
2020-09-04 16:00:00 22.2 15 Este 22 Este 0 -- -- 87
2020-09-04 15:00:00 22.3 17 Este 22 Este 0 -- -- 86
2020-09-04 14:00:00 22.6 16 Este 21 Este 0 -- -- 86
2020-09-04 13:00:00 22 16 Este 21 Este 0 -- -- 88
2020-09-04 12:00:00 21.2 16 Este 24 Sudeste 0 -- -- 90
2020-09-04 11:00:00 20.8 17 Este 26 Sudeste 0 -- -- 91
2020-09-04 10:00:00 20.2 17 Sudeste 26 Sudeste 0 -- -- 94
2020-09-04 09:00:00 19.1 19 Sudeste 24 Sudeste 0 -- -- 98
2020-09-04 08:00:00 18.6 16 Sudeste 24 Sudeste 0 -- -- 98
2020-09-04 07:00:00 18.8 17 Sudeste 26 Sudeste 0 -- -- 98
2020-09-04 06:00:00 18.6 19 Sudeste 24 Sudeste 0 -- -- 98
2020-09-04 05:00:00 18.8 14 Este 22 Este 0 -- -- 98
2020-09-04 04:00:00 18.8 14 Este 24 Este 0 -- -- 98
2020-09-04 03:00:00 19 18 Este 27 Este 0 -- -- 98
2020-09-04 02:00:00 19.1 20 Este 31 Sudeste 0 -- -- 98
2020-09-04 01:00:00 19.3 22 Este 28 Este 0 -- -- 97
2020-09-04 00:00:00 19.3 20 Este 28 Este 0 -- -- 96
2020-09-03 23:00:00 19.3 21 Este 26 Este 0 -- -- 96
2020-09-03 22:00:00 19.4 21 Este 28 Este 0 -- -- 94
2020-09-03 21:00:00 19.5 20 Este 28 Este 0 -- -- 92
2020-09-03 20:00:00 20.1 21 Este 29 Este 0 -- -- 87
2020-09-03 19:00:00 21 23 Este 31 Este 0 -- -- 82
2020-09-03 18:00:00 21.6 24 Este 33 Este 0 -- -- 76
2020-09-03 17:00:00 22.2 24 Este 34 Este 0 -- -- 71
2020-09-03 16:00:00 22.3 23 Este 30 Este 0 -- -- 70
2020-09-03 15:00:00 22.5 20 Este 26 Este 0 -- -- 72
2020-09-03 14:00:00 21.4 17 Este 23 Este 0 -- -- 76
2020-09-03 13:00:00 21.3 14 Este 18 Este 0 -- -- 77
2020-09-03 12:00:00 20.7 12 Este 22 Este 0 -- -- 80
2020-09-03 11:00:00 20.4 17 Este 26 Sudeste 0 -- -- 77
2020-09-03 10:00:00 19.5 17 Sudeste 23 Sudeste 0 -- -- 77
2020-09-03 09:00:00 18.5 13 Sudeste 19 Sudeste 0 -- -- 86
2020-09-03 08:00:00 17 14 Sudeste 21 Sudeste 0 -- -- 86
2020-09-03 07:00:00 16.8 15 Sudeste 23 Sudeste 0 -- -- 85
2020-09-03 06:00:00 17.4 19 Sudeste 25 Sudeste 0 -- -- 82
2020-09-03 05:00:00 17.4 18 Sudeste 24 Sudeste 0 -- -- 87
2020-09-03 04:00:00 17.9 16 Sudeste 23 Sudeste 0 -- -- 86
2020-09-03 03:00:00 18.6 17 Este 29 Este 0 -- -- 84
2020-09-03 02:00:00 18.7 19 Este 28 Este 0 -- -- 83
2020-09-03 01:00:00 18.7 18 Este 28 Sudeste 0 -- -- 86
2020-09-03 00:00:00 18.9 23 Sudeste 39 Este 0 -- -- 84
2020-09-02 23:00:00 19.3 23 Este 35 Este 0 -- -- 83
2020-09-02 22:00:00 19.3 22 Este 34 Este 0 -- -- 84
2020-09-02 21:00:00 19.4 21 Este 29 Este 0 -- -- 84
2020-09-02 20:00:00 19.7 19 Este 28 Este 0 -- -- 83
2020-09-02 19:00:00 20.1 17 Este 29 Este 0 -- -- 77
2020-09-02 18:00:00 20 18 Este 32 Este 0 -- -- 77
2020-09-02 17:00:00 20.2 15 Este 25 Sudeste 0 -- -- 76
2020-09-02 16:00:00 20.1 14 Este 26 Sudeste 0 -- -- 76
2020-09-02 15:00:00 20.1 14 Este 22 Este 0 -- -- 75
2020-09-02 14:00:00 20.5 14 Este 22 Sudeste 0 -- -- 74
2020-09-02 13:00:00 20.2 13 Este 20 Este 0 -- -- 75
2020-09-02 12:00:00 19.8 10 Este 16 Este 0 -- -- 76
2020-09-02 11:00:00 19.3 5 Este 11 Sudeste 0 -- -- 77
2020-09-02 10:00:00 19.3 6 Este 10 Sudeste 0 -- -- 76
2020-09-02 09:00:00 18.6 0 Calma 7 Sudeste 0 -- -- 78
2020-09-02 08:00:00 16.5 5 Sudeste 6 Sudeste 0 -- -- 82
2020-09-02 07:00:00 16.8 2 Este 6 Nordeste 0 -- -- 79
2020-09-02 06:00:00 17.4 4 Nordeste 7 Nordeste 0 -- -- 76
2020-09-02 05:00:00 17.1 3 Este 5 Norte 0 -- -- 77
2020-09-02 04:00:00 17.5 4 Nordeste 6 Sudeste 0 -- -- 76
2020-09-02 03:00:00 16.3 3 Sudeste 8 Sudeste 0 -- -- 77
2020-09-02 02:00:00 16.5 0 Calma 6 Sudeste 0 -- -- 77
2020-09-02 01:00:00 16.6 0 Calma 6 Sudeste 0 -- -- 77
2020-09-02 00:00:00 16.9 2 Sudeste 9 Sudeste 0 -- -- 77
2020-09-01 23:00:00 17.6 3 Este 12 Este 0 -- -- 74
2020-09-01 22:00:00 18.1 4 Este 19 Este 0 -- -- 76
2020-09-01 21:00:00 18.5 6 Este 18 Sur 0 -- -- 76
2020-09-01 20:00:00 18.8 8 Este 23 Este 0 -- -- 76
2020-09-01 19:00:00 18.9 9 Este 23 Nordeste 0 -- -- 77
2020-09-01 18:00:00 19.2 9 Este 25 Sudeste 0 -- -- 77
2020-09-01 17:00:00 19.2 9 Este 26 Sudeste 0 -- -- 76
2020-09-01 16:00:00 19.9 8 Este 24 Sudeste 0 -- -- 76
2020-09-01 15:00:00 20.2 8 Este 22 Sudeste 0 -- -- 70
2020-09-01 14:00:00 20.2 8 Este 22 Este 0 -- -- 71
2020-09-01 13:00:00 20.6 10 Este 21 Este 0 -- -- 70
2020-09-01 12:00:00 20.3 9 Este 18 Sudeste 0 -- -- 74
2020-09-01 11:00:00 20.1 0 Calma 7 Oeste 0 -- -- 77
2020-09-01 10:00:00 18.5 4 Oeste 13 Sudoeste 0 -- -- 85
2020-09-01 09:00:00 16.5 9 Sudoeste 12 Oeste 0 -- -- 89
2020-09-01 08:00:00 15.6 8 Sudoeste 13 Noroeste 0 -- -- 90
2020-09-01 07:00:00 17 3 Norte 6 Noroeste 0 -- -- 90
2020-09-01 06:00:00 17.8 3 Nordeste 6 Sudeste 0 -- -- 89
2020-09-01 05:00:00 17.2 3 Sudeste 5 Este 0 -- -- 87
2020-09-01 04:00:00 17.5 0 Calma 7 Sudeste 0 -- -- 88
2020-09-01 03:00:00 18.3 6 Sudeste 9 Sudeste 0 -- -- 85
2020-09-01 02:00:00 18.2 4 Sudeste 8 Sudeste 0 -- -- 86
2020-09-01 01:00:00 18.5 3 Sudeste 9 Sudeste 0 -- -- 85
2020-09-01 00:00:00 18.4 8 Sudeste 15 Sudeste 0 -- -- 85
2020-08-31 23:00:00 18.2 14 Sudeste 18 Sudeste 0 -- -- 85
2020-08-31 22:00:00 18.7 12 Este 22 Sudeste 0 -- -- 77
2020-08-31 21:00:00 18.8 15 Sudeste 24 Este 0 -- -- 77
2020-08-31 20:00:00 18.9 16 Este 26 Este 0 -- -- 74
2020-08-31 19:00:00 19.1 17 Este 27 Este 0 -- -- 73
2020-08-31 18:00:00 19.9 20 Este 28 Este 0 -- -- 68
2020-08-31 17:00:00 20.2 19 Este 31 Este 0 -- -- 66
2020-08-31 16:00:00 20.5 23 Este 31 Este 0 -- -- 64
2020-08-31 15:00:00 21.1 21 Este 31 Este 0 -- -- 64
2020-08-31 14:00:00 20.3 21 Este 30 Este 0 -- -- 66
2020-08-31 13:00:00 19.9 19 Este 28 Este 0 -- -- 65
2020-08-31 12:00:00 18.7 18 Este 27 Este 0 -- -- 69
2020-08-31 11:00:00 18.3 16 Este 27 Sudeste 0 -- -- 69
2020-08-31 10:00:00 16.4 17 Sudeste 25 Sudeste 0 -- -- 70
2020-08-31 09:00:00 14.6 13 Sudeste 20 Sudeste 0 -- -- 75
2020-08-31 08:00:00 13.4 12 Sudeste 18 Sudeste 0 -- -- 77
2020-08-31 07:00:00 13.3 5 Sudeste 18 Sudeste 0 -- -- 79
2020-08-31 06:00:00 13.6 9 Sudeste 17 Sudeste 0 -- -- 77
2020-08-31 05:00:00 13.5 6 Sudeste 18 Sudeste 0 -- -- 79
2020-08-31 04:00:00 14.4 14 Sudeste 20 Sudeste 0 -- -- 74
2020-08-31 03:00:00 14.9 15 Sudeste 20 Sudeste 0 -- -- 74
2020-08-31 02:00:00 15 6 Sudeste 17 Sudeste 0 -- -- 77
2020-08-31 01:00:00 15.2 5 Sudeste 15 Sudeste 0 -- -- 77
2020-08-31 00:00:00 15.7 9 Sudeste 18 Este 0 -- -- 76
2020-08-30 23:00:00 15.6 6 Este 21 Este 0 -- -- 74
2020-08-30 22:00:00 16.3 9 Este 18 Este 0 -- -- 67
2020-08-30 21:00:00 16.2 9 Este 18 Este 0 -- -- 69
2020-08-30 20:00:00 16.7 8 Este 15 Este 0 -- -- 69
2020-08-30 19:00:00 18 6 Este 11 Este 0 -- -- 67
2020-08-30 18:00:00 18.4 3 Norte 9 Noroeste 0 -- -- 66
2020-08-30 17:00:00 18.4 2 Noroeste 11 Norte 0 -- -- 68
2020-08-30 16:00:00 17.5 4 Noroeste 14 Oeste 0 -- -- 76
2020-08-30 15:00:00 16.8 4 Noroeste 17 Oeste 0 -- -- 77
2020-08-30 14:00:00 15.5 9 Oeste 23 Sudoeste 0 -- -- 89
2020-08-30 13:00:00 14.8 9 Sudoeste 33 Sudoeste 3.9 -- -- 91
2020-08-30 12:00:00 15.4 18 Sudoeste 27 Oeste 0.5 -- -- 89
2020-08-30 11:00:00 15.2 18 Sudoeste 24 Sudoeste 0.2 -- -- 89
2020-08-30 10:00:00 14.2 7 Sudoeste 20 Sudoeste 2.8 -- -- 87
2020-08-30 09:00:00 14.7 11 Sudoeste 21 Norte 0 -- -- 81
2020-08-30 08:00:00 15.7 3 Norte 20 Noroeste 0 -- -- 66
2020-08-30 07:00:00 15.3 0 Calma 19 Noroeste 0 -- -- 76
2020-08-30 06:00:00 15.3 5 Sudeste 31 Norte 0 -- -- 76
2020-08-30 05:00:00 16.4 22 Noroeste 33 Noroeste 0 -- -- 62
2020-08-30 04:00:00 16 5 Sudeste 28 Nordeste 0 -- -- 72
2020-08-30 03:00:00 15.4 5 Nordeste 27 Noroeste 2.6 -- -- 84
2020-08-30 02:00:00 14.4 9 Sudoeste 21 Sudoeste 1.3 -- -- 92
2020-08-30 01:00:00 14.2 10 Sudoeste 24 Sudoeste 0.1 -- -- 91
2020-08-30 00:00:00 14 12 Sudoeste 24 Sudoeste 0 -- -- 93
2020-08-29 23:00:00 14.3 9 Sudoeste 26 Norte 2.8 -- -- 91
2020-08-29 22:00:00 15.6 5 Sudeste 23 Norte 0 -- -- 77
2020-08-29 21:00:00 15.8 4 Sudeste 26 Sudeste 0 -- -- 82
2020-08-29 20:00:00 15.9 6 Sudeste 37 Sudeste 1.1 -- -- 81
2020-08-29 19:00:00 18.5 5 Sudeste 21 Sudeste 0 -- -- 63
2020-08-29 18:00:00 18.5 7 Sur 27 Sudoeste 0 -- -- 64
2020-08-29 17:00:00 19.5 10 Sur 31 Sudeste 0 -- -- 63
2020-08-29 16:00:00 18.5 9 Sudeste 33 Sudeste 0 -- -- 76
2020-08-29 15:00:00 18.5 8 Sur 45 Nordeste 0 -- -- 74
2020-08-29 14:00:00 18.3 9 Sur 32 Sudeste 0 -- -- 75
2020-08-29 13:00:00 17.7 9 Sur 39 Sudeste 0.4 -- -- 77
2020-08-29 12:00:00 16.9 3 Este 53 Norte 0 -- -- 83
2020-08-29 11:00:00 17 4 Norte 42 Nordeste 0 -- -- 86
2020-08-29 10:00:00 16.7 10 Sudeste 55 Norte 1.7 -- -- 86
2020-08-29 09:00:00 16.3 28 Noroeste 59 Norte 0.3 -- -- 85
2020-08-29 08:00:00 16.7 30 Noroeste 57 Noroeste 0.3 -- -- 80
2020-08-29 07:00:00 15.1 29 Noroeste 68 Noroeste 3.1 -- -- 92
2020-08-29 06:00:00 15.7 22 Noroeste 53 Noroeste 0.4 -- -- 85
2020-08-29 05:00:00 16.7 22 Noroeste 45 Noroeste 0.9 -- -- 77
2020-08-29 04:00:00 15.9 15 Noroeste 39 Noroeste 0.4 -- -- 86
2020-08-29 03:00:00 14.8 26 Sudoeste 39 Sudoeste 3.6 -- -- 94
2020-08-29 02:00:00 14.1 22 Sudoeste 39 Sudoeste 5.9 -- -- 97
2020-08-29 01:00:00 14.8 22 Oeste 45 Oeste 0.4 -- -- 93
2020-08-29 00:00:00 14.7 36 Oeste 67 Oeste 0.8 -- -- 94
2020-08-28 23:00:00 17.2 15 Noroeste 48 Noroeste 0.1 -- -- 81
2020-08-28 22:00:00 18 21 Noroeste 49 Noroeste 0 -- -- 75
2020-08-28 21:00:00 18.5 22 Oeste 51 Oeste 0 -- -- 68
2020-08-28 20:00:00 18.7 21 Oeste 50 Oeste 0 -- -- 65
2020-08-28 19:00:00 18.7 18 Noroeste 48 Oeste 0 -- -- 68
2020-08-28 18:00:00 18.9 17 Oeste 44 Noroeste 0 -- -- 63
2020-08-28 17:00:00 18.9 19 Noroeste 54 Oeste 0 -- -- 63
2020-08-28 16:00:00 19.3 20 Oeste 54 Oeste 0 -- -- 64
2020-08-28 15:00:00 18.8 19 Noroeste 53 Oeste 0.3 -- -- 69
2020-08-28 14:00:00 17.7 31 Oeste 51 Oeste 0 -- -- 77
2020-08-28 13:00:00 18.8 23 Sudoeste 49 Oeste 0 -- -- 77
2020-08-28 12:00:00 16.7 28 Oeste 55 Oeste 0.2 -- -- 83
2020-08-28 11:00:00 18.8 18 Oeste 36 Oeste 0 -- -- 74
2020-08-28 10:00:00 16.8 16 Oeste 39 Oeste 0.1 -- -- 85
2020-08-28 09:00:00 18.2 23 Oeste 42 Oeste 0 -- -- 74
2020-08-28 08:00:00 18 27 Oeste 50 Oeste 0 -- -- 75
2020-08-28 07:00:00 18.1 18 Oeste 48 Noroeste 0 -- -- 77
2020-08-28 06:00:00 18.7 20 Noroeste 50 Norte 0 -- -- 71
2020-08-28 05:00:00 18.7 22 Noroeste 48 Noroeste 0 -- -- 73
2020-08-28 04:00:00 18.8 20 Noroeste 52 Noroeste 0 -- -- 71
2020-08-28 03:00:00 18.7 32 Noroeste 58 Noroeste 0.1 -- -- 77
2020-08-28 02:00:00 18.7 23 Noroeste 47 Noroeste 0.3 -- -- 90
2020-08-28 01:00:00 18.2 15 Oeste 35 Oeste 1.4 -- -- 99
2020-08-28 00:00:00 18.2 8 Noroeste 33 Norte 0.4 -- -- 99
2020-08-27 23:00:00 19.5 21 Noroeste 33 Norte 0.1 -- -- 98
2020-08-27 22:00:00 20.7 16 Noroeste 34 Noroeste 0 -- -- 93
2020-08-27 21:00:00 21.1 13 Oeste 20 Oeste 0 -- -- 86
2020-08-27 20:00:00 21.2 12 Oeste 20 Oeste 0 -- -- 86
2020-08-27 19:00:00 22.3 10 Oeste 18 Oeste 0 -- -- 85
2020-08-27 18:00:00 22.4 10 Oeste 16 Oeste 0 -- -- 83
2020-08-27 17:00:00 23.1 11 Oeste 18 Oeste 0 -- -- 82
2020-08-27 16:00:00 22.2 12 Oeste 17 Noroeste 0 -- -- 84
2020-08-27 15:00:00 22.8 10 Oeste 20 Oeste 0 -- -- 83
2020-08-27 14:00:00 22.1 14 Oeste 22 Oeste 0 -- -- 85
2020-08-27 13:00:00 22.5 13 Oeste 21 Oeste 0 -- -- 86
2020-08-27 12:00:00 21.2 10 Oeste 18 Noroeste 0 -- -- 94
2020-08-27 11:00:00 21 8 Noroeste 16 Norte 0 -- -- 92
2020-08-27 10:00:00 20.6 7 Oeste 15 Oeste 0 -- -- 96
2020-08-27 09:00:00 20.2 8 Oeste 18 Oeste 0 -- -- 97
2020-08-27 08:00:00 19.9 11 Oeste 24 Oeste 0 -- -- 98
2020-08-27 07:00:00 19.9 19 Oeste 30 Oeste 0 -- -- 98
2020-08-27 06:00:00 19.3 14 Sudoeste 19 Oeste 0 -- -- 98
2020-08-27 05:00:00 19.3 17 Sudoeste 22 Oeste 0 -- -- 97
2020-08-27 04:00:00 19.8 11 Sudoeste 13 Sudoeste 0 -- -- 96
2020-08-27 03:00:00 19.7 8 Sudoeste 9 Sudoeste 0 -- -- 97
2020-08-27 02:00:00 20.3 4 Este 21 Sudeste 0 -- -- 96
2020-08-27 01:00:00 20.4 18 Sudeste 24 Sudeste 0 -- -- 98
2020-08-27 00:00:00 20.3 18 Este 23 Sudeste 0 -- -- 98
2020-08-26 23:00:00 20.4 17 Este 25 Este 0 -- -- 98
2020-08-26 22:00:00 20.2 14 Este 27 Este 0 -- -- 97
2020-08-26 21:00:00 20.3 17 Este 26 Este 0 -- -- 96
2020-08-26 20:00:00 -- -- -- -- -- -- -- -- --
2020-08-26 19:00:00 21.4 19 Este 27 Este 0 -- -- 91
2020-08-26 18:00:00 22.3 21 Este 28 Este 0 -- -- 87
2020-08-26 17:00:00 21.9 21 Este 30 Este 0 -- -- 89
2020-08-26 16:00:00 20.9 18 Este 29 Este 0 -- -- 93
2020-08-26 15:00:00 20.4 15 Este 26 Este 0 -- -- 97
2020-08-26 14:00:00 20.4 15 Sudeste 24 Sudeste 0 -- -- 99
2020-08-26 13:00:00 20.3 11 Sudeste 20 Sudeste 0 -- -- 99
2020-08-26 12:00:00 20 8 Este 14 Este 0 -- -- 99
2020-08-26 11:00:00 19.6 6 Sudeste 17 Nordeste 0 -- -- 99
2020-08-26 10:00:00 19.3 6 Este 17 Sudeste 0 -- -- 99
2020-08-26 09:00:00 19.4 6 Sudeste 15 Sudeste 0 -- -- 99
2020-08-26 08:00:00 19.6 6 Este 13 Sudeste 0.1 -- -- 99
2020-08-26 07:00:00 19.9 5 Sudeste 11 Sudeste 0 -- -- 99
2020-08-26 06:00:00 20 2 Norte 7 Noroeste 0 -- -- 99
2020-08-26 05:00:00 20 2 Noroeste 3 Noroeste 0 -- -- 99
2020-08-26 04:00:00 19.9 0 Calma 5 Noroeste 0 -- -- 99
2020-08-26 03:00:00 19.8 0 Calma 7 Sudoeste 0 -- -- 99
2020-08-26 02:00:00 19.8 3 Sudoeste 5 Oeste 0 -- -- 99
2020-08-26 01:00:00 20 2 Oeste 9 Oeste 0 -- -- 99
2020-08-26 00:00:00 19.9 5 Oeste 8 Oeste 0 -- -- 99
2020-08-25 23:00:00 19.9 4 Oeste 15 Noroeste 0 -- -- 99
2020-08-25 22:00:00 20.2 6 Noroeste 18 Noroeste 0 -- -- 99
2020-08-25 21:00:00 20.6 9 Oeste 15 Oeste 0 -- -- 97
2020-08-25 20:00:00 20.8 9 Oeste 26 Noroeste 0 -- -- 94
2020-08-25 19:00:00 21 17 Noroeste 27 Noroeste 0 -- -- 93
2020-08-25 18:00:00 22.2 13 Noroeste 21 Norte 0 -- -- 83
2020-08-25 17:00:00 23.6 8 Noroeste 19 Oeste 0 -- -- 71
2020-08-25 16:00:00 23.5 12 Oeste 18 Oeste 0 -- -- 69
2020-08-25 15:00:00 23.8 13 Oeste 23 Oeste 0 -- -- 66
2020-08-25 14:00:00 22.6 15 Oeste 21 Oeste 0 -- -- 68
2020-08-25 13:00:00 22.5 10 Oeste 16 Oeste 0 -- -- 72
2020-08-25 12:00:00 21.7 9 Oeste 18 Oeste 0 -- -- 75
2020-08-25 11:00:00 21 12 Oeste 21 Oeste 0 -- -- 77
2020-08-25 10:00:00 20.7 14 Oeste 20 Oeste 0 -- -- 79
2020-08-25 09:00:00 19.7 7 Sudoeste 22 Oeste 0 -- -- 86
2020-08-25 08:00:00 18.7 16 Sudoeste 26 Oeste 0 -- -- 96
2020-08-25 07:00:00 19 16 Oeste 26 Sudoeste 0 -- -- 97
2020-08-25 06:00:00 18.8 17 Sudoeste 24 Oeste 0 -- -- 97
2020-08-25 05:00:00 18.6 16 Sudoeste 23 Oeste 0 -- -- 96
2020-08-25 04:00:00 18.6 18 Sudoeste 24 Sudoeste 0 -- -- 92
2020-08-25 03:00:00 18.6 15 Sudoeste 17 Sudoeste 0 -- -- 89
2020-08-25 02:00:00 19.2 5 Sudeste 15 Sudeste 0 -- -- 86
2020-08-25 01:00:00 19 14 Sudeste 26 Sudeste 0 -- -- 92
2020-08-25 00:00:00 19.2 21 Sudeste 29 Sudeste 0 -- -- 93
2020-08-24 23:00:00 19.4 22 Sudeste 32 Sudeste 0 -- -- 92
2020-08-24 22:00:00 19.4 23 Este 35 Este 0 -- -- 91
2020-08-24 21:00:00 19.6 27 Este 37 Este 0 -- -- 87
2020-08-24 20:00:00 20.2 27 Este 37 Este 0 -- -- 82
2020-08-24 19:00:00 21 25 Este 35 Este 0 -- -- 78
2020-08-24 18:00:00 21.6 22 Este 36 Este 0 -- -- 74
2020-08-24 17:00:00 22.2 24 Este 38 Este 0 -- -- 72
2020-08-24 16:00:00 21.9 25 Este 42 Este 0 -- -- 70
2020-08-24 15:00:00 22.5 25 Este 37 Este 0 -- -- 67
2020-08-24 14:00:00 22.2 21 Este 33 Este 0 -- -- 70
2020-08-24 13:00:00 21.3 21 Este 31 Este 0 -- -- 76
2020-08-24 12:00:00 21.3 17 Este 33 Sudeste 0 -- -- 77
2020-08-24 11:00:00 21.5 18 Este 29 Este 0 -- -- 77
2020-08-24 10:00:00 19.6 14 Este 24 Este 0 -- -- 82
2020-08-24 09:00:00 19.5 14 Este 24 Este 0 -- -- 82
2020-08-24 08:00:00 18.8 13 Este 19 Este 0 -- -- 90
2020-08-24 07:00:00 18.8 13 Este 17 Este 0 -- -- 91
2020-08-24 06:00:00 18.8 13 Este 24 Sudeste 0 -- -- 89
2020-08-24 05:00:00 19.1 14 Este 22 Este 0 -- -- 83
2020-08-24 04:00:00 19.2 7 Este 22 Este 0 -- -- 83
2020-08-24 03:00:00 19.4 10 Sudeste 24 Este 0 -- -- 84
2020-08-24 02:00:00 19.3 13 Este 22 Este 0 -- -- 84
2020-08-24 01:00:00 19.4 9 Sudeste 19 Sudeste 0 -- -- 84
2020-08-24 00:00:00 19.5 9 Sudeste 17 Sudeste 0 -- -- 81
2020-08-23 23:00:00 19.5 11 Este 19 Este 0 -- -- 81
2020-08-23 22:00:00 19.2 11 Este 19 Este 0 -- -- 79
2020-08-23 21:00:00 19.5 12 Este 21 Este 0 -- -- 77
2020-08-23 20:00:00 19.9 12 Sudeste 20 Este 0 -- -- 73
2020-08-23 19:00:00 20.3 10 Sudeste 20 Sudeste 0 -- -- 75
2020-08-23 18:00:00 20.6 8 Este 23 Sudeste 0 -- -- 72
2020-08-23 17:00:00 21.2 12 Sudeste 24 Sudeste 0 -- -- 71
2020-08-23 16:00:00 21.8 12 Este 25 Sudeste 0 -- -- 70
2020-08-23 15:00:00 21.1 10 Este 27 Sudeste 0 -- -- 71
2020-08-23 14:00:00 21.2 14 Sudeste 24 Sudeste 0 -- -- 71
2020-08-23 13:00:00 21.4 11 Este 18 Sudeste 0 -- -- 74
2020-08-23 12:00:00 20.8 3 Nordeste 9 Nordeste 0 -- -- 83
2020-08-23 11:00:00 20 3 Norte 6 Norte 0 -- -- 86
2020-08-23 10:00:00 19.4 3 Noroeste 7 Noroeste 0 -- -- 87
2020-08-23 09:00:00 19.5 2 Norte 3 Norte 0 -- -- 90
2020-08-23 08:00:00 18 2 Sur 7 Sur 0 -- -- 87
2020-08-23 07:00:00 17.9 3 Sur 5 Sur 0 -- -- 94
2020-08-23 06:00:00 18.6 0 Calma 2 Noroeste 0 -- -- 93
2020-08-23 05:00:00 18.6 0 Calma 3 Noroeste 0 -- -- 92
2020-08-23 04:00:00 18.8 0 Calma 3 Oeste 0 -- -- 92
2020-08-23 03:00:00 18.9 2 Oeste 4 Oeste 0 -- -- 92
2020-08-23 02:00:00 19 0 Calma 3 Oeste 0 -- -- 89
2020-08-23 01:00:00 19 0 Calma 3 Noroeste 0 -- -- 90
2020-08-23 00:00:00 19.1 0 Calma 3 Noroeste 0 -- -- 86